Regional Weather Roundup
Issued by NWS

Home | Current Version | Previous Version | Graphics & Text | Print | Product List | Glossary On
Versions: 1 2 3 4 5 6 7 8 9 10 11 12 13 14 15 16 17 18 19 20 21 22 23 24 25 26 27 28 29 30 31 32 33 34 35 36 37 38 39 40 41 42 43 44 45 46 47 48 49 50
000
ASUS44 KMEG 182210
RWRTN
TENNESSEE HOURLY STATE WEATHER ROUNDUP
NATIONAL WEATHER SERVICE MEMPHIS TN
500 PM CDT FRI APR 18 2014

TNZ002-004-019-021-049-052-054-088>092-182300-
WEST TENNESSEE

CITY           SKY/WX    TMP DP  RH WIND       PRES   REMARKS
MEMPHIS INTL   PTSUNNY   73  50  44 E7        30.15F
NWS MEMPHIS      N/A     71 N/A N/A MISG        N/A
JACKSON        CLOUDY    71  48  43 NE12      30.17F
DYERSBURG      MOSUNNY   70  46  43 E7        30.18F
UNION CITY     PTSUNNY   70  46  43 E3        30.17F
PARIS          MOSUNNY   69  46  43 NE3       30.18
LEXINGTON      PTSUNNY   70  46  43 E7        30.16S
$$

TNZ008-025-027-028-033-062-065-066-182300-
NORTH MIDDLE TENNESSEE

CITY           SKY/WX    TMP DP  RH WIND       PRES   REMARKS
NASHVILLE      CLOUDY    68  47  46 NE8       30.18F
DICKSON        CLOUDY    66  45  45 NE6       30.18F
PORTLAND         N/A     66  45  45 E5        30.18F
CLARKSVILLE    MOSUNNY   70  47  43 E5        30.18F
SMYRNA         CLOUDY    69  47  45 NE9       30.19F
MURFREESBORO   CLOUDY    67  47  48 NE7       30.18F
COOKEVILLE     SUNNY     66  45  45 VRB7      30.18F
LIVINGSTON     CLOUDY    64  42  44 E8        30.20F
GALLATIN       CLOUDY    69  47  45 NE6       30.20F
CROSSVILLE     CLOUDY    62  40  44 NE9       30.20F
$$

TNZ061-075-076-078-094-096-097-182300-
SOUTH MIDDLE TENNESSEE

CITY           SKY/WX    TMP DP  RH WIND       PRES   REMARKS
LEWISBURG      CLOUDY    66  46  48 NE7       30.18F
FAYETTEVILLE   CLOUDY    62  43  49 NE7       30.18F
TULLAHOMA      SUNNY     64  43  45 E8        30.19S
WINCHESTER     SUNNY     64  45  48 N7        30.18S
MCMINNVILLE    SUNNY     64  46  52 NE5       30.19F
COLUMBIA       SUNNY     66  54  63 NE6       30.16F
SHELBYVILLE    CLOUDY    66  48  52 NE8       30.19F
$$

TNZ017-018-042-046-047-182300-
NORTHEAST TENNESSEE

CITY           SKY/WX    TMP DP  RH WIND       PRES   REMARKS
TRI CITIES     CLOUDY    62  32  32 CALM      30.23F
ELIZABETHTON   CLEAR     59  36  41 CALM      30.23F
$$

TNZ012-013-036-069-073-074-182300-
CENTRAL EAST TENNESSEE

CITY           SKY/WX    TMP DP  RH WIND       PRES   REMARKS
KNOXVILLE      CLOUDY    61  41  47 NE10      30.20F
OAK RIDGE      CLOUDY    65  39  38 E9        30.21F
$$

TNZ083-085-099-182300-
SOUTHEAST TENNESSEE

CITY           SKY/WX    TMP DP  RH WIND       PRES   REMARKS
CHATTANOOGA    CLOUDY    63  41  44 N9        30.17F
$$

SKY/WX REPORTED AS FAIR MEANS FEW OR NO CLOUDS BELOW
12 THOUSAND FEET.




USA.gov is the U.S. government's official web portal to all federal, state and local government web resources and services.